CW6601 Weather Reports


time (UTC)temp
F
wind
direction
speed
knots
gust
knots
rain 1hr
in
rain 24hr
in
rain mn
in
humidity
%
barometer
mb
20260506144517 48 274 0.0 0.0 0.00 0.01 0.01 96 1021.6
20260506144513 48 274 0.0 0.0 0.00 0.01 0.01 96 1022.9
20260506143016 48 274 0.0 0.0 0.00 0.01 0.01 96 1021.6
20260506143003 48 274 0.0 0.0 0.00 0.01 0.01 97 1022.9
20260506141512 48 274 0.0 0.0 0.00 0.01 0.01 96 1021.6
20260506141503 48 274 0.0 0.0 0.00 0.01 0.01 97 1022.8
20260506140124 48 274 0.0 0.0 0.00 0.01 0.01 97 1022.6
20260506140009 48 274 0.0 0.0 0.00 0.01 0.01 96 1021.4
20260506134558 48 275 0.0 0.0 0.00 0.01 0.01 97 1022.5
20260506134523 48 275 0.0 0.0 0.00 0.01 0.01 96 1021.2
20260506133133 48 275 0.0 0.0 0.00 0.01 0.01 97 1022.4
20260506133021 48 275 0.0 0.0 0.00 0.01 0.01 96 1021.1
20260506131557 48 275 0.0 0.0 0.00 0.01 0.01 97 1022.2
20260506131520 48 275 0.0 0.0 0.00 0.01 0.01 96 1020.9
20260506130136 48 275 0.0 0.0 0.00 0.01 0.01 97 1022.2
20260506130020 48 275 0.0 0.0 0.00 0.01 0.01 96 1020.9
20260506124553 48 275 0.0 0.0 0.00 0.01 0.01 97 1022.4
20260506124514 48 275 0.0 0.0 0.00 0.01 0.01 96 1020.8
20260506123048 48 275 0.0 0.0 0.00 0.01 0.01 97 1022.0
20260506123014 48 275 0.0 0.0 0.00 0.01 0.01 96 1020.7
20260506121552 48 275 0.0 0.0 0.01 0.01 0.01 97 1021.9
20260506121525 48 275 0.0 0.0 0.01 0.01 0.01 96 1020.7
20260506120043 48 275 0.0 0.0 0.01 0.01 0.01 96 1022.0
20260506120034 48 275 0.0 0.0 0.01 0.01 0.01 96 1020.6
20260506114543 48 275 0.0 0.0 0.01 0.01 0.01 96 1021.8
20260506114526 48 275 0.0 0.0 0.01 0.01 0.01 96 1020.5
20260506113044 48 275 0.0 0.0 0.01 0.01 0.01 96 1021.7
20260506113020 48 275 0.0 0.0 0.01 0.01 0.01 96 1020.4
20260506111539 48 275 0.0 0.0 0.00 0.00 0.00 96 1021.7
20260506111514 48 275 0.0 0.0 0.00 0.00 0.00 96 1020.3
20260506110042 47 275 0.0 0.0 0.00 0.00 0.00 96 1021.5
20260506110014 47 275 0.0 0.0 0.00 0.00 0.00 96 1020.1
20260506104538 47 275 0.0 0.0 0.00 0.00 0.00 96 1021.5
20260506104508 47 275 0.0 0.0 0.00 0.00 0.00 96 1020.1
20260506103040 47 275 0.0 0.0 0.00 0.00 0.00 96 1021.4
20260506103015 47 275 0.0 0.0 0.00 0.00 0.00 96 1019.9
20260506101538 47 275 0.0 0.0 0.00 0.00 0.00 96 1021.3
20260506101505 47 275 0.0 0.0 0.00 0.00 0.00 96 1019.7
20260506100038 47 275 0.0 0.0 0.00 0.00 0.00 96 1021.4
20260506100005 47 275 0.0 0.0 0.00 0.00 0.00 96 1019.8
20260506094536 48 275 0.0 0.0 0.00 0.02 0.00 96 1021.4
20260506094529 48 275 0.0 0.0 0.00 0.00 0.00 96 1019.7
20260506093036 48 274 0.0 0.0 0.00 0.02 0.00 96 1021.2
20260506093024 48 274 0.0 0.0 0.00 0.01 0.00 96 1019.7
20260506091535 48 274 0.0 0.0 0.00 0.02 0.00 96 1021.4
20260506091513 48 274 0.0 0.0 0.00 0.01 0.00 96 1019.8
20260506090039 48 274 0.0 0.0 0.00 0.02 0.00 96 1021.4
20260506090008 48 274 0.0 0.0 0.00 0.02 0.00 96 1019.8
20260506084537 48 274 0.0 0.0 0.00 0.10 0.00 96 1021.3
20260506084506 48 274 0.0 0.0 0.00 0.05 0.00 96 1019.8
20260506083033 48 274 0.0 0.0 0.00 0.10 0.00 96 1021.4
20260506083022 48 274 0.0 0.0 0.00 0.07 0.00 96 1019.8
20260506081532 48 274 0.0 0.0 0.00 0.10 0.00 96 1021.4
20260506081519 48 275 0.0 0.0 0.00 0.09 0.00 96 1019.9
20260506073028 48 274 0.0 0.0 0.00 0.10 0.00 96 1021.2
20260506073010 48 274 0.0 0.0 0.00 0.10 0.00 96 1019.8
20260506071527 48 274 0.0 0.0 0.00 0.10 0.00 96 1021.0
20260506071509 48 274 0.0 0.0 0.00 0.10 0.00 96 1019.6
20260506061524 48 274 0.0 0.0 0.00 0.11 0.10 96 1019.3
20260506061521 48 274 0.0 0.0 0.00 0.11 0.10 96 1020.7
20260506044521 48 274 0.0 0.0 0.00 0.14 0.10 96 1018.6
20260506044515 48 274 0.0 0.0 0.00 0.15 0.10 96 1020.2
20260506043016 48 274 0.0 0.0 0.00 0.14 0.10 96 1018.5
20260506043014 48 274 0.0 0.0 0.00 0.15 0.10 96 1020.1
20260506041526 48 274 0.0 0.0 0.00 0.15 0.10 96 1018.3
20260506041512 48 274 0.0 0.0 0.00 0.15 0.10 96 1019.9
20260506040027 48 274 0.0 0.0 0.00 0.15 0.10 96 1018.2
20260506040011 48 274 0.0 0.0 0.00 0.15 0.10 96 1019.7
20260506034525 48 274 0.0 0.0 0.00 0.16 0.10 96 1018.0
20260506034511 48 274 0.0 0.0 0.00 0.22 0.10 96 1019.5
20260506033024 48 274 0.0 0.0 0.00 0.19 0.10 96 1017.8
20260506033010 48 274 0.0 0.0 0.00 0.22 0.10 96 1019.4
20260506031523 48 274 0.0 0.0 0.00 0.21 0.10 96 1017.4
20260506031518 48 274 0.0 0.0 0.00 0.22 0.10 96 1019.1
20260506030019 48 274 0.0 0.0 0.00 0.22 0.10 96 1017.2
20260506030007 48 274 0.0 0.0 0.00 0.22 0.10 96 1019.0
20260506024532 48 274 0.0 0.0 0.00 0.24 0.10 96 1017.3
20260506024507 48 274 0.0 0.0 0.00 0.28 0.10 96 1019.0
20260506023026 48 274 0.0 0.0 0.00 0.26 0.10 96 1017.1
20260506023005 48 274 0.0 0.0 0.00 0.28 0.10 96 1018.7
20260506021507 48 274 0.0 0.0 0.00 0.29 0.10 96 1017.1
20260506021505 48 274 0.0 0.0 0.00 0.28 0.10 96 1018.8
20260506020007 48 274 0.0 0.0 0.00 0.29 0.10 96 1017.0
20260506020004 48 274 0.0 0.0 0.00 0.28 0.10 96 1018.6
20260506014506 48 274 0.0 0.0 0.00 0.31 0.10 96 1017.1
20260506014504 48 274 0.0 0.0 0.00 0.31 0.10 96 1018.6
20260506013004 48 274 0.0 0.0 0.00 0.31 0.10 96 1017.1
20260506011509 48 274 0.0 0.0 0.00 0.31 0.10 96 1018.6
20260506011504 48 274 0.0 0.0 0.00 0.31 0.10 96 1017.1
20260506010120 48 274 0.0 0.0 0.00 0.31 0.10 96 1018.4
20260506010012 48 274 0.0 0.0 0.00 0.31 0.10 96 1016.8
20260506004558 48 274 0.0 0.0 0.00 0.32 0.10 96 1018.3
20260506004510 48 274 0.0 0.0 0.00 0.31 0.10 96 1016.7
20260506003119 48 274 0.0 0.0 0.00 0.32 0.10 96 1018.2
20260506003005 48 274 0.0 0.0 0.00 0.31 0.10 96 1016.6
20260506001604 47 274 0.0 0.0 0.00 0.32 0.10 96 1018.2
20260506001504 47 274 0.0 0.0 0.00 0.31 0.10 96 1016.7
20260506000056 47 274 0.0 0.0 0.00 0.32 0.10 96 1018.1
20260506000004 47 274 0.0 0.0 0.00 0.32 0.10 96 1016.5
20260505234555 47 274 0.0 0.0 0.00 0.40 0.10 96 1018.1
20260505234532 47 274 0.0 0.0 0.00 0.33 0.10 96 1016.5
20260505233105 47 274 0.0 0.0 0.00 0.40 0.10 96 1018.1
20260505233017 47 274 0.0 0.0 0.00 0.36 0.10 96 1016.5
20260505231554 47 274 0.0 0.0 0.00 0.40 0.10 96 1018.1
20260505231514 47 274 0.0 0.0 0.00 0.38 0.10 96 1016.5
20260505230057 47 274 0.0 0.0 0.00 0.40 0.10 96 1018.0
20260505230012 47 274 0.0 0.0 0.00 0.40 0.10 96 1016.4
20260505224553 47 274 0.0 0.0 0.00 0.44 0.10 96 1017.9
20260505224504 47 274 0.0 0.0 0.00 0.41 0.10 96 1016.3
20260505223052 47 272 0.0 0.0 0.00 0.44 0.10 96 1018.1
20260505223009 47 272 0.0 0.0 0.00 0.43 0.10 96 1016.4
20260505221555 47 266 0.0 0.0 0.00 0.44 0.10 96 1018.2
20260505221518 47 266 0.0 0.0 0.00 0.44 0.10 96 1016.5
20260505220051 47 266 0.0 0.0 0.00 0.44 0.10 96 1018.1
20260505220018 47 265 0.0 0.0 0.00 0.44 0.10 96 1016.4
20260505214609 47 265 0.0 0.0 0.00 0.47 0.10 96 1018.2
20260505214514 47 265 0.0 0.0 0.00 0.45 0.10 95 1016.4
20260505213051 47 281 0.0 1.7 0.00 0.47 0.10 96 1018.3
20260505213013 47 281 0.0 1.7 0.00 0.46 0.10 95 1016.5
20260505211550 47 269 0.0 0.9 0.00 0.47 0.10 96 1018.2
20260505211508 47 270 0.0 0.9 0.00 0.47 0.10 95 1016.5
20260505210048 47 269 0.0 0.9 0.00 0.47 0.10 96 1018.2
20260505210008 47 269 0.0 1.7 0.00 0.47 0.10 95 1016.4
20260505204549 47 269 0.9 3.5 0.00 0.48 0.10 95 1018.2
20260505204527 47 269 0.9 3.5 0.00 0.47 0.10 95 1016.4
20260505203048 47 269 0.0 3.5 0.00 0.48 0.10 95 1018.2
20260505203023 47 269 0.0 3.5 0.00 0.47 0.10 95 1016.3
20260505201552 47 284 0.0 0.9 0.00 0.48 0.10 95 1018.0
20260505201514 47 284 0.0 0.9 0.00 0.47 0.10 95 1016.2
20260505200045 47 284 0.0 1.7 0.00 0.48 0.10 95 1018.0
20260505200021 47 284 0.0 1.7 0.00 0.48 0.10 95 1016.2
20260505194544 47 284 0.9 2.6 0.00 0.54 0.10 95 1018.1
20260505194510 47 284 0.0 2.6 0.00 0.50 0.10 95 1016.2
20260505193042 47 284 0.0 2.6 0.00 0.54 0.10 95 1018.2
20260505193026 47 284 0.9 2.6 0.00 0.52 0.10 95 1016.2
20260505191550 46 284 0.9 2.6 0.00 0.54 0.10 95 1018.2
20260505191524 46 284 0.9 2.6 0.00 0.52 0.10 95 1016.2
20260505190050 47 271 1.7 3.5 0.00 0.54 0.10 96 1018.2
20260505190022 47 271 1.7 3.5 0.00 0.54 0.10 95 1016.1
20260505184543 46 255 0.0 1.7 0.00 0.62 0.10 96 1018.1
20260505184525 46 255 0.0 1.7 0.00 0.58 0.10 95 1016.0
20260505183057 46 255 0.9 2.6 0.00 0.62 0.10 96 1018.1
20260505183037 46 255 0.9 2.6 0.00 0.61 0.10 95 1016.1
20260505181537 46 190 0.0 0.0 0.00 0.62 0.10 96 1018.0
20260505181512 46 190 0.0 0.0 0.00 0.62 0.10 96 1015.9
20260505180037 46 190 0.0 0.0 0.00 0.62 0.10 96 1017.9
20260505180024 46 190 0.0 0.0 0.00 0.62 0.10 96 1015.8
20260505174536 46 190 0.0 0.0 0.00 0.64 0.10 96 1017.7
20260505174524 46 190 0.0 0.0 0.00 0.63 0.10 96 1015.8
20260505173042 46 190 0.0 0.0 0.00 0.64 0.10 96 1017.6
20260505173023 46 190 0.0 0.0 0.00 0.63 0.10 96 1015.7
20260505171543 45 190 0.0 0.0 0.00 0.64 0.10 96 1017.6
20260505171505 45 190 0.0 0.0 0.00 0.64 0.10 96 1015.6
20260505170031 45 190 0.0 0.0 0.00 0.64 0.10 96 1017.6
20260505170018 45 190 0.0 0.0 0.00 0.64 0.10 96 1015.6
20260505164530 45 190 0.0 0.0 0.00 0.76 0.10 96 1017.5
20260505164517 45 190 0.0 0.0 0.00 0.64 0.10 96 1015.6
20260505163029 45 190 0.0 0.0 0.00 0.76 0.10 96 1017.4
20260505163010 45 190 0.0 0.0 0.00 0.67 0.10 96 1015.5
20260505161529 45 190 0.0 0.0 0.00 0.76 0.10 96 1017.6
20260505161506 45 190 0.0 0.0 0.00 0.71 0.10 96 1015.4
20260505153026 44 190 0.0 0.0 0.00 0.79 0.10 96 1017.2
20260505153018 44 190 0.0 0.0 0.00 0.79 0.10 96 1015.2
20260505151532 44 190 0.0 0.0 0.00 0.79 0.10 96 1017.1
20260505151517 44 190 0.0 0.0 0.00 0.79 0.10 96 1015.1